Regional Weather Roundup
Issued by NWS Newport/Morehead, NC

Current Version | Previous Version | Graphics & Text | Print | Product List | Glossary Off
Versions: 1 2 3 4 5 6 7 8 9 10 11 12 13 14 15 16 17 18 19 20 21 22 23 24 25 26 27 28 29 30 31 32 33 34 35 36 37 38 39 40 41 42 43 44 45 46 47 48 49 50

000
ASUS42 KMHX 291825
RWRMHX
WEATHER ROUNDUP FOR EASTERN NORTH CAROLINA
NATIONAL WEATHER SERVICE NEWPORT/MOREHEAD CITY NC
200 PM EDT SAT AUG 29 2015

NOTE: "FAIR" INDICATES FEW OR NO CLOUDS BELOW 12,000 FEET
WITH NO SIGNIFICANT WEATHER AND/OR OBSTRUCTIONS TO VISIBILITY

NCZ015>017-031-032-045>047-102-103-291900-
NORTH COAST

CITY           SKY/WX    TMP DP  RH WIND       PRES   REMARKS
EDENTON        PTSUNNY   82  60  46 NE8       30.18F
ELIZABETH CITY MOSUNNY   82  62  50 NE13      30.19S
KITTY HAWK     CLOUDY    81  66  60 NE10      30.17F
MANTEO         CLOUDY    79  68  68 NE16      30.18F

$$

NCZ045>047-081-094-103-104-291900-
CENTRAL COAST

CITY           SKY/WX    TMP DP  RH WIND       PRES   REMARKS
FRISCO         PTSUNNY   81  70  69 NE13G22   30.15S
SWANQUARTER    NOT AVBL

$$

NCZ095-097-098-100-101-291900-
SOUTHERN COAST

CITY           SKY/WX    TMP DP  RH WIND       PRES   REMARKS
BEAUFORT       CLOUDY    83  72  69 NE13      30.15F
CEDAR ISLAND   NOT AVBL
JACKSONVILLE   PTSUNNY   85  63  47 N12G17    30.16F
PINEY ISLAND   MOCLDY   N/A N/A N/A N15       30.16F
WILMINGTON     CLOUDY    83  67  58 N8        30.17S


$$

NCZ011>013-027>030-043-044-078>080-089-090>093-098-291900-
COASTAL PLAIN

CITY           SKY/WX    TMP DP  RH WIND       PRES   REMARKS
AHOSKIE        PTSUNNY   82  60  47 N5        30.19F
CLINTON        CLOUDY    83  60  45 N8        30.19F
ELIZABETHTOWN  CLOUDY    82  62  50 CALM      30.19S
GOLDSBORO      CLOUDY    83  60  44 N9        30.18F
GREENVILLE     PTSUNNY   82  61  47 NE7       30.19F
HAVELOCK       PTSUNNY   85  68  56 NE13      30.17F
KENANSVILLE    CLOUDY    82  56  41 NE3       30.19F
KINSTON        PTSUNNY   84  54  34 NE12      30.19F
NEW BERN       PTSUNNY   84  65  52 N9        30.18F
RICHLANDS      PTSUNNY   82  57  42 NE10      30.17F
ROCKY MOUNT    CLOUDY    88  57  34 E8        30.19F
WASHINGTON     PTSUNNY   83  61  47 NE6       30.18F
WHITEVILLE     CLOUDY    81  63  54 NE7       30.18F

$$

AMZ130-135-150-152-154-156-158-170-250-252-270-ANZ085-086-088-633-658-670-291900-
MARINE OBSERVATIONS

STATION/POSITION TIME  TEMP    WIND        PRES    WAVE   SWELL
                       AIR SEA DIR/SP/G            HT/PER HT/PER
                 (UTC) (F)     (DEG/KT/KT) (MB)    (FT/S) (FT/S)
CHESAPEAKE LIGHT 1800   76      60/  9/ 10 1023.3
64 E VA BEACH    1750   77 78   50/ 14/ 17 1021.9    4/11   3/11
DUCK             NOT AVBL
2 E DUCK         1711      78                N/A     4/11   2/11
OREGON INLET     NOT AVBL
13E OREGON INLT  1800      78                N/A     5/11   2/11
HATTERAS CG      NOT AVBL
DIAMOND BUOY     1750   78 83   30/ 17/ 21 1020.3    5/11   3/11
CAPE LOOKOUT     1800   80      40/ 18/ 21 1020.6
BEAUFORT LAB     NOT AVBL
30 SE NEW RVR IN 1708   80 81   50/ 16/ 21 1020.8
30 SE NEW RVR IN 1725      81                N/A     5/11   2/11
27 SE WRIGHTSVLE 1800   77 82   50/ 12/ 16   N/A
5 SE WRIGHTSVLE  1708   80 82   40/ 10/ 14 1021.6
225 S CAPE HAT   1750   84 84  240/  8/ 12 1021.6    4/11   5/11
41 SE CHARLESTON 1750   80 85   40/ 14/ 17 1020.5    4/ 6   2/ 8

$$



USA.gov is the U.S. government's official web portal to all federal, state and local government web resources and services.